Location: McFarlands Corners
(41.4117°N, 81.3382°W)
Time: 13:15:33
(UTC+00:00)

A-11 Canister half - Pass Details

Date: 16 February 2026
Orbit: 1513 x 1687 km, 47.2° (Epoch: 11 March)

Event Time Altitude Azimuth Distance (km) Brightness Sun altitude
Rises 01:24:11 0° 206° (SSW) 4,926 11.9 -27.7°
Reaches altitude 10° 01:27:36 10° 199° (SSW) 3,941 11.2 -28.3°
Enters shadow 01:35:32 39° 150° (SSE) 2,337 9.6 -29.8°
Maximum altitude 01:36:46 40° 135° (SE) 2,293 - -30.0°
Drops below altitude 10° 01:45:48 10° 70° (ENE) 3,893 - -31.7°
Sets 01:49:08 0° 63° (ENE) 4,861 - -32.3°
